When you browse on this site, cookies collect data to enhance your experience and personalize the content and advertising you see.
Visit our Privacy Policy to learn more. By continuing to use the site, you agree to this use of cookies and data.
  • In Lithuania
  • List of Countries
  • For 7 days
  • Water Temperature
  • Weather Map
  • Weather Widgets
  • user-avatar
    Login

    Hourly Weather Naftalan

    Today, 17 August, Saturday

    Time Temperature Precipitation Wind Pressure Humidity
    00:00 +25°C° 0 mm 3 mps 758 mmHg 80%
    01:00 +25°C° 0 mm 3 mps 758 mmHg 79%
    02:00 +24°C° 0 mm 2 mps 758 mmHg 79%
    03:00 +24°C° 0 mm 2 mps 758 mmHg 79%
    04:00 +25°C° 0 mm 2 mps 758 mmHg 75%
    05:00 +25°C° 0 mm 1 mps 758 mmHg 71%
    06:00 +25°C° 0 mm 1 mps 758 mmHg 67%
    07:00 +27°C° 0 mm 1 mps 759 mmHg 58%
    08:00 +29°C° 0 mm 1 mps 759 mmHg 48%
    09:00 +31°C° 0 mm 1 mps 759 mmHg 37%
    10:00 +32°C° 0 mm 2 mps 759 mmHg 36%
    11:00 +34°C° 0 mm 3 mps 758 mmHg 35%
    12:00 +35°C° 0 mm 4 mps 758 mmHg 34%
    13:00 +35°C° 0 mm 4 mps 758 mmHg 36%
    14:00 +34°C° 0 mm 5 mps 757 mmHg 38%
    15:00 +34°C° 0 mm 5 mps 757 mmHg 40%
    16:00 +33°C° 0 mm 5 mps 757 mmHg 44%
    17:00 +32°C° 0 mm 4 mps 757 mmHg 48%
    18:00 +29°C° 0 mm 4 mps 757 mmHg 51%
    19:00 +28°C° 0 mm 3 mps 757 mmHg 58%
    20:00 +27°C° 0 mm 3 mps 758 mmHg 64%
    21:00 +25°C° 0 mm 2 mps 758 mmHg 71%
    22:00 +25°C° 0 mm 2 mps 758 mmHg 71%
    23:00 +24°C° 0 mm 1 mps 758 mmHg 72%

    Tomorrow, 18 August, Sunday

    Time Temperature Precipitation Wind Pressure Humidity
    00:00 +24°C° 0 mm 1 mps 759 mmHg 72%
    01:00 +23°C° 0 mm 1 mps 759 mmHg 72%
    02:00 +23°C° 0 mm 2 mps 758 mmHg 71%
    03:00 +23°C° 0 mm 2 mps 758 mmHg 70%
    04:00 +22°C° 0 mm 3 mps 759 mmHg 67%
    05:00 +24°C° 0 mm 3 mps 759 mmHg 63%
    06:00 +23°C° 0 mm 4 mps 759 mmHg 59%
    07:00 +27°C° 0 mm 3 mps 759 mmHg 51%
    08:00 +29°C° 0 mm 3 mps 759 mmHg 43%
    09:00 +33°C° 0 mm 3 mps 759 mmHg 35%
    10:00 +34°C° 0 mm 3 mps 759 mmHg 34%
    11:00 +35°C° 0 mm 4 mps 759 mmHg 32%
    12:00 +36°C° 0 mm 5 mps 759 mmHg 30%
    13:00 +36°C° 0 mm 5 mps 759 mmHg 30%
    14:00 +35°C° 0 mm 5 mps 758 mmHg 30%
    15:00 +35°C° 0 mm 5 mps 758 mmHg 30%
    16:00 +34°C° 0 mm 4 mps 758 mmHg 33%
    17:00 +33°C° 0 mm 3 mps 758 mmHg 36%
    18:00 +30°C° 0 mm 2 mps 759 mmHg 38%
    19:00 +29°C° 0 mm 2 mps 759 mmHg 48%
    20:00 +27°C° 0 mm 2 mps 759 mmHg 58%
    21:00 +25°C° 0 mm 2 mps 760 mmHg 67%
    22:00 +25°C° 0 mm 2 mps 760 mmHg 72%
    23:00 +24°C° 0 mm 2 mps 760 mmHg 76%

    Day after tomorrow, 19 August, Monday

    Time Temperature Precipitation Wind Pressure Humidity
    00:00 +24°C° 0 mm 2 mps 760 mmHg 80%
    01:00 +24°C° 0 mm 2 mps 760 mmHg 83%
    02:00 +23°C° 0 mm 2 mps 760 mmHg 85%
    03:00 +23°C° 0 mm 2 mps 760 mmHg 87%
    04:00 +23°C° 0 mm 2 mps 760 mmHg 86%
    05:00 +24°C° 0 mm 2 mps 761 mmHg 85%
    06:00 +25°C° 0 mm 2 mps 761 mmHg 84%
    07:00 +27°C° 0 mm 2 mps 761 mmHg 72%
    08:00 +29°C° 0 mm 2 mps 762 mmHg 59%
    09:00 +32°C° 0 mm 2 mps 762 mmHg 47%
    10:00 +34°C° 0 mm 3 mps 762 mmHg 41%
    11:00 +36°C° 0 mm 4 mps 762 mmHg 36%
    12:00 +37°C° 0 mm 5 mps 762 mmHg 30%
    13:00 +37°C° 0 mm 5 mps 762 mmHg 30%
    14:00 +37°C° 0 mm 5 mps 761 mmHg 29%
    15:00 +36°C° 0 mm 5 mps 761 mmHg 29%
    16:00 +35°C° 0 mm 5 mps 761 mmHg 33%
    17:00 +33°C° 0 mm 4 mps 762 mmHg 37%
    18:00 +31°C° 0 mm 3 mps 762 mmHg 41%
    19:00 +29°C° 0 mm 2 mps 762 mmHg 49%
    20:00 +26°C° 0 mm 2 mps 762 mmHg 57%
    21:00 +24°C° 0 mm 1 mps 763 mmHg 65%
    22:00 +24°C° 0 mm 1 mps 763 mmHg 63%
    23:00 +24°C° 0 mm 2 mps 763 mmHg 62%

    20 August, Tuesday

    Time Temperature Precipitation Wind Pressure Humidity
    00:00 +24°C° 0 mm 2 mps 763 mmHg 61%
    01:00 +24°C° 0 mm 3 mps 763 mmHg 60%
    02:00 +24°C° 0 mm 3 mps 763 mmHg 59%
    03:00 +25°C° 0 mm 3 mps 763 mmHg 58%
    04:00 +25°C° 0 mm 4 mps 763 mmHg 54%
    05:00 +25°C° 0 mm 4 mps 763 mmHg 49%
    06:00 +25°C° 0 mm 4 mps 764 mmHg 44%
    07:00 +28°C° 0 mm 4 mps 764 mmHg 39%
    08:00 +32°C° 0 mm 4 mps 764 mmHg 33%
    09:00 +34°C° 0 mm 4 mps 764 mmHg 28%
    10:00 +36°C° 0 mm 4 mps 764 mmHg 28%
    11:00 +37°C° 0 mm 4 mps 763 mmHg 29%
    12:00 +38°C° 0 mm 4 mps 763 mmHg 29%
    13:00 +37°C° 0 mm 5 mps 763 mmHg 31%
    14:00 +37°C° 0 mm 5 mps 763 mmHg 32%
    15:00 +36°C° 0 mm 6 mps 762 mmHg 34%
    16:00 +35°C° 0 mm 5 mps 762 mmHg 39%
    17:00 +33°C° 0 mm 5 mps 762 mmHg 44%
    18:00 +30°C° 0 mm 4 mps 762 mmHg 50%
    19:00 +29°C° 0 mm 3 mps 763 mmHg 55%
    20:00 +27°C° 0 mm 3 mps 763 mmHg 60%
    21:00 +26°C° 0 mm 2 mps 763 mmHg 65%
    22:00 +26°C° 0 mm 2 mps 763 mmHg 65%
    23:00 +26°C° 0 mm 2 mps 763 mmHg 64%

    21 August, Wednesday

    Time Temperature Precipitation Wind Pressure Humidity
    00:00 +25°C° 0 mm 2 mps 762 mmHg 63%
    01:00 +25°C° 0 mm 2 mps 762 mmHg 62%
    02:00 +25°C° 0 mm 1 mps 762 mmHg 61%
    03:00 +25°C° 0 mm 1 mps 762 mmHg 60%
    04:00 +25°C° 0 mm 1 mps 762 mmHg 58%
    05:00 +26°C° 0 mm 1 mps 762 mmHg 56%
    06:00 +26°C° 0 mm 1 mps 763 mmHg 54%
    07:00 +28°C° 0 mm 2 mps 763 mmHg 46%
    08:00 +31°C° 0 mm 2 mps 763 mmHg 38%
    09:00 +35°C° 0 mm 2 mps 763 mmHg 30%
    10:00 +36°C° 0 mm 2 mps 763 mmHg 28%
    11:00 +37°C° 0 mm 3 mps 762 mmHg 25%
    12:00 +38°C° 0 mm 3 mps 762 mmHg 23%
    13:00 +37°C° 0 mm 3 mps 762 mmHg 25%
    14:00 +37°C° 0 mm 4 mps 761 mmHg 27%
    15:00 +37°C° 0 mm 4 mps 761 mmHg 29%
    16:00 +35°C° 0 mm 4 mps 761 mmHg 36%
    17:00 +34°C° 0 mm 4 mps 761 mmHg 42%
    18:00 +32°C° 0 mm 4 mps 761 mmHg 49%
    19:00 +29°C° 0 mm 3 mps 761 mmHg 54%
    20:00 +28°C° 0 mm 3 mps 761 mmHg 60%
    21:00 +27°C° 0 mm 2 mps 761 mmHg 65%
    22:00 +26°C° 0 mm 2 mps 761 mmHg 66%
    23:00 +25°C° 0 mm 1 mps 761 mmHg 66%

    22 August, Thursday

    Time Temperature Precipitation Wind Pressure Humidity
    00:00 +25°C° 0 mm 1 mps 761 mmHg 66%
    01:00 +25°C° 0 mm 1 mps 761 mmHg 66%
    02:00 +25°C° 0 mm 1 mps 761 mmHg 66%
    03:00 +25°C° 0 mm 2 mps 761 mmHg 67%
    04:00 +25°C° 0 mm 1 mps 761 mmHg 65%
    05:00 +26°C° 0 mm 1 mps 761 mmHg 64%
    06:00 +26°C° 0 mm 1 mps 761 mmHg 62%
    07:00 +29°C° 0 mm 1 mps 761 mmHg 53%
    08:00 +31°C° 0 mm 1 mps 761 mmHg 44%
    09:00 +34°C° 0 mm 1 mps 761 mmHg 35%
    10:00 +35°C° 0 mm 2 mps 761 mmHg 32%
    11:00 +36°C° 0 mm 3 mps 760 mmHg 30%
    12:00 +37°C° 0 mm 4 mps 760 mmHg 28%
    13:00 +37°C° 0 mm 4 mps 760 mmHg 28%
    14:00 +37°C° 0 mm 5 mps 759 mmHg 29%
    15:00 +37°C° 0 mm 5 mps 759 mmHg 30%
    16:00 +35°C° 0 mm 5 mps 759 mmHg 35%
    17:00 +33°C° 0 mm 5 mps 759 mmHg 41%
    18:00 +32°C° 0 mm 4 mps 759 mmHg 46%
    19:00 +29°C° 0 mm 4 mps 759 mmHg 52%
    20:00 +28°C° 0 mm 3 mps 760 mmHg 58%
    21:00 +26°C° 0 mm 2 mps 760 mmHg 64%
    22:00 +26°C° 0 mm 2 mps 760 mmHg 65%
    23:00 +26°C° 0 mm 2 mps 760 mmHg 66%
    Show more